Location: Newark
(6.1731°S, 35.7419°E)
Time: 14:35:40
(UTC+00:00)

Altair - Pass Details

Date: 21 February 2020
Orbit: 1501 x 1682 km, 47.2° (Epoch: 06 April)

Event Time Altitude Azimuth Distance (km) Brightness Sun altitude
Rises 17:51:41 0° 205° (SSW) 4,666 10.6 -28.2°
Reaches altitude 10° 17:55:11 10° 195° (SSW) 3,668 9.8 -29.0°
Enters shadow 18:02:48 33° 139° (SE) 2,316 8.2 -30.9°
